STARLINK-30052 (57611 NORAD) Tracking and Keplerian Element Data

This shows tracking and keplerian element data for the satellite.

Feedback or suggestion? Click here.




ElementValue
Catalog57611
NameSTARLINK-30052
Epoch Orbit376
Epoch Day239.16667824
Epoch Year2023
RAAN77.7325
Inclination43.0008
Eccentricity0.000111
Argument of Perigee245.1214
Mean Anonmoly13.0403
Mean Motion15.7451886
Decay Rate-0.00839295
L11 57611U 23119K 23239.16667824 -.00839295 00000+0 -61682-2 0 9997
L22 57611 43.0008 77.7325 0001110 245.1214 13.0403 15.74518860 3762



Live tracking and technical data element details for STARLINK-30052 (NORAD 57611). STARLINK-30052 can be tracked NOW for your location showing map with azimuth and elevation plus other details from your city location.







IsCatalogInMostPopularTable: catalog: 57611, numindb: 4
Update: records affected: 1



GetName: 57611 STARLINK-30052

Hit Count: updated at: Tue, 26 Sep 2023 13:46:53 GMT